TimeEDT,TemperatureF,Dew PointF,Humidity,Sea Level PressureIn,VisibilityMPH,Wind Direction,Wind SpeedMPH,Gust SpeedMPH,PrecipitationIn,Events,Conditions,WindDirDegrees,DateUTC
12:53 AM,54.0,45.0,72,29.84,10.0,SSW,3.5,-,N/A,,Scattered Clouds,210,2013-06-16 04:53:00
1:53 AM,52.0,44.1,74,29.83,10.0,SSW,3.5,-,N/A,,Partly Cloudy,200,2013-06-16 05:53:00
2:53 AM,48.9,44.1,83,29.85,10.0,Calm,Calm,-,N/A,,Clear,0,2013-06-16 06:53:00
3:53 AM,50.0,44.1,80,29.84,10.0,SW,3.5,-,N/A,,Scattered Clouds,220,2013-06-16 07:53:00
4:53 AM,46.9,43.0,86,29.84,10.0,Calm,Calm,-,N/A,,Scattered Clouds,0,2013-06-16 08:53:00
5:53 AM,53.1,46.0,77,29.86,10.0,SSW,4.6,-,N/A,,Scattered Clouds,210,2013-06-16 09:53:00
6:53 AM,57.9,46.9,67,29.88,10.0,Calm,Calm,-,N/A,,Scattered Clouds,0,2013-06-16 10:53:00
7:53 AM,63.0,48.0,58,29.89,10.0,Calm,Calm,-,N/A,,Mostly Cloudy,0,2013-06-16 11:53:00
8:53 AM,66.0,48.0,52,29.88,10.0,Calm,Calm,-,N/A,,Scattered Clouds,0,2013-06-16 12:53:00
9:53 AM,69.1,48.0,47,29.87,10.0,Calm,Calm,-,N/A,,Scattered Clouds,0,2013-06-16 13:53:00
10:53 AM,73.0,48.9,42,29.84,10.0,Calm,Calm,-,N/A,,Mostly Cloudy,0,2013-06-16 14:53:00
11:53 AM,73.9,50.0,43,29.82,10.0,South,9.2,17.3,N/A,,Mostly Cloudy,180,2013-06-16 15:53:00
12:53 PM,73.9,48.9,41,29.80,10.0,South,10.4,-,N/A,,Overcast,170,2013-06-16 16:53:00
1:53 PM,73.9,48.9,41,29.78,10.0,South,13.8,20.7,N/A,,Overcast,190,2013-06-16 17:53:00
2:53 PM,71.1,46.9,42,29.76,10.0,South,10.4,-,N/A,,Overcast,170,2013-06-16 18:53:00
3:53 PM,69.1,48.0,47,29.75,10.0,South,15.0,20.7,N/A,,Overcast,180,2013-06-16 19:53:00
4:53 PM,68.0,46.9,47,29.76,10.0,South,11.5,-,N/A,,Overcast,170,2013-06-16 20:53:00
5:53 PM,66.0,46.9,50,29.76,10.0,South,9.2,-,N/A,,Overcast,170,2013-06-16 21:53:00
6:53 PM,62.1,53.1,72,29.76,8.0,South,6.9,-,0.01,Rain,Light Rain,190,2013-06-16 22:53:00
7:53 PM,59.0,55.0,87,29.75,10.0,ESE,4.6,-,0.00,,Overcast,120,2013-06-16 23:53:00
8:53 PM,57.9,54.0,87,29.73,10.0,SSE,5.8,-,N/A,,Overcast,160,2013-06-17 00:53:00
9:53 PM,57.9,54.0,87,29.73,10.0,SSE,3.5,-,N/A,,Overcast,150,2013-06-17 01:53:00
10:53 PM,57.9,54.0,87,29.72,10.0,South,4.6,-,N/A,,Overcast,190,2013-06-17 02:53:00
11:53 PM,57.9,54.0,87,29.72,10.0,South,5.8,-,N/A,,Overcast,170,2013-06-17 03:53:00